Home > Weather > Viseu > Past weeks

Flag for Portugal Past Weather in Viseu, Portugal — Yesterday and Last 2 Weeks

Now
71 °F

Mild.


Feels Like: 77 °F
Forecast: 60 / 84 °F
Wind: 7 mph from Northeast

Location: Viseu

Current Time: Jun 26, 2016 at 12:59:38 PM

Latest Report: Jun 26, 2016 at 12:00 PM


Visibility: N/A

Pressure: 30.02 "Hg

Humidity: 49%

Dew Point: 51 °F

Location of ViseuLocation

Past Weather in Viseu — Graph

°F

Viseu Temperature Yesterday

Maximum temperature yesterday: 83 °F (at 5:00 PM)
Minimum temperature yesterday: 55 °F (at 6:00 AM)
Average temperature yesterday: 67 °F

High & Low Weather Summary for the Past Weeks

 TemperatureHumidityPressure
High88 °F (Jun 21, 4:00 PM)100% (Jun 12, 2:00 AM)30.37 "Hg (Jun 12, 2:00 AM)
Low46 °F (Jun 18, 5:00 AM)35% (Jun 21, 3:00 PM)29.75 "Hg (Jun 15, 3:00 PM)
Average63 °F79%30.07 "Hg
* Reported Jun 11 10:00 AM — Jun 26 10:00 AM, Viseu, Weather by CustomWeather, © 2016

Note: Actual official high and low records may vary slightly from our data, if they occured in-between our weather recording intervals... More about our weather records

Advertising

Viseu Weather History for the Previous 24 Hours

Scroll right to see more
 ConditionsComfort  
Time TempWeatherWind HumidityBarometerVisibility
10:00 AM
Sun, Jun 26
65 °FMild.9 mph57%30.02 "HgN/A
9:00 AM62 °FCool.12 mph63%30.03 "HgN/A
8:00 AM59 °FCool.12 mph68%30.04 "HgN/A
7:00 AM57 °FCool.14 mph68%30.03 "HgN/A
6:00 AM57 °FCool.12 mph68%30.03 "HgN/A
5:00 AM58 °FCool.12 mph66%30.01 "HgN/A
4:00 AM59 °FCool.12 mph69%30.01 "HgN/A
3:00 AM62 °FCool.10 mph71%30.00 "HgN/A
2:00 AM63 °FMild.7 mph79%30.00 "HgN/A
1:00 AM62 °FCool.2 mph89%30.01 "HgN/A
12:00 AM63 °FMild.1 mph87%30.00 "HgN/A
11:00 PM
Sat, Jun 25
64 °FMild.2 mph88%30.00 "HgN/A
10:00 PM68 °FMild.2 mph79%29.97 "HgN/A
9:00 PM68 °FMild.3 mph80%29.96 "HgN/A
8:00 PM73 °FMild.8 mph71%29.93 "HgN/A
7:00 PM75 °FMild.8 mph67%29.91 "HgN/A
6:00 PM78 °FWarm.7 mph59%29.90 "HgN/A
5:00 PM83 °FWarm.2 mph41%29.90 "HgN/A
4:00 PM77 °FMild.3 mph48%29.93 "HgN/A
3:00 PM81 °FWarm.2 mph46%29.94 "HgN/A
2:00 PM79 °FWarm.3 mph53%29.96 "HgN/A
1:00 PM77 °FWarm.3 mph56%29.97 "HgN/A
12:00 PM76 °FMild.3 mph65%29.99 "HgN/A
Weather by CustomWeather, © 2016

See weather overviewHow to use our weather pages